OYATS EDDG-ZZZZ

Flight info

Callsign OYATS
Flight time N/A
Altitude 2000
Route DCT
Aircraft C172/L-SFG/C

Departure

Time 2026-05-06 15:29
Airport Münster Osnabrück Airport (EDDG)

Arrival

Time N/A
Airport ZZZZ
Time Latitude Longitude Altitude Speed Heading
2026-05-06 15:10 52.13170 7.68816 161 ft 0 kts 161°
2026-05-06 15:19 52.13167 7.68818 161 ft 1 kts 160°
2026-05-06 15:20 52.13150 7.68826 161 ft 3 kts 160°
2026-05-06 15:20 52.13145 7.68829 161 ft 0 kts 153°
2026-05-06 15:20 52.13141 7.68834 161 ft 2 kts 150°
2026-05-06 15:20 52.13134 7.68875 161 ft 5 kts 69°
2026-05-06 15:21 52.13154 7.68934 161 ft 7 kts 31°
2026-05-06 15:21 52.13209 7.68926 161 ft 9 kts 343°
2026-05-06 15:21 52.13241 7.68910 160 ft 0 kts 343°
2026-05-06 15:22 52.13242 7.68910 160 ft 0 kts 345°
2026-05-06 15:22 52.13242 7.68909 160 ft 0 kts 346°
2026-05-06 15:22 52.13280 7.68887 160 ft 9 kts 340°
2026-05-06 15:22 52.13340 7.68848 160 ft 10 kts 319°
2026-05-06 15:23 52.13342 7.68725 160 ft 14 kts 250°
2026-05-06 15:23 52.13307 7.68558 160 ft 10 kts 251°
2026-05-06 15:23 52.13305 7.68550 160 ft 0 kts 249°
2026-05-06 15:24 52.13305 7.68548 160 ft 1 kts 250°
2026-05-06 15:24 52.13295 7.68508 160 ft 6 kts 250°
2026-05-06 15:24 52.13275 7.68413 161 ft 10 kts 252°
2026-05-06 15:25 52.13278 7.68323 161 ft 1 kts 316°
2026-05-06 15:25 52.13280 7.68319 161 ft 0 kts 317°
2026-05-06 15:26 52.13296 7.68299 160 ft 5 kts 331°
2026-05-06 15:27 52.13351 7.68267 160 ft 10 kts 345°
2026-05-06 15:27 52.13424 7.68300 160 ft 12 kts 65°
2026-05-06 15:27 52.13427 7.68314 160 ft 0 kts 64°
2026-05-06 15:27 52.13500 7.68659 161 ft 59 kts 70°
2026-05-06 15:28 52.13674 7.69466 230 ft 82 kts 64°
2026-05-06 15:28 52.13865 7.70363 387 ft 84 kts 66°
2026-05-06 15:28 52.14030 7.71240 583 ft 82 kts 68°
2026-05-06 15:28 52.14194 7.72160 689 ft 88 kts 68°
2026-05-06 15:29 52.14539 7.72953 714 ft 95 kts 18°
2026-05-06 15:29 52.15186 7.73021 898 ft 84 kts
2026-05-06 15:29 52.15747 7.72895 951 ft 87 kts 346°
2026-05-06 15:29 52.16295 7.72317 795 ft 109 kts 303°
2026-05-06 15:30 52.16255 7.71021 707 ft 115 kts 254°
2026-05-06 15:30 52.15962 7.69865 735 ft 110 kts 246°
2026-05-06 15:30 52.15609 7.68780 749 ft 107 kts 244°
2026-05-06 15:30 52.15224 7.67703 670 ft 115 kts 242°
2026-05-06 15:31 52.14830 7.66556 687 ft 113 kts 243°
2026-05-06 15:31 52.14425 7.65505 800 ft 110 kts 237°
2026-05-06 15:31 52.13978 7.64449 852 ft 114 kts 238°
2026-05-06 15:32 52.13116 7.62484 1029 ft 99 kts 198°
2026-05-06 15:32 52.12474 7.62612 949 ft 93 kts 138°
2026-05-06 15:32 52.12295 7.63462 814 ft 79 kts 61°
2026-05-06 15:32 52.12542 7.64139 736 ft 65 kts 64°
2026-05-06 15:33 52.12669 7.64849 567 ft 68 kts 68°
2026-05-06 15:33 52.12841 7.65608 364 ft 74 kts 66°
2026-05-06 15:33 52.13016 7.66367 290 ft 71 kts 67°
2026-05-06 15:33 52.13176 7.67139 188 ft 69 kts 69°
2026-05-06 15:34 52.13325 7.67818 159 ft 59 kts 66°
2026-05-06 15:34 52.13487 7.68600 261 ft 76 kts 68°
2026-05-06 15:34 52.13648 7.69411 341 ft 76 kts 66°
2026-05-06 15:34 52.13799 7.70238 403 ft 78 kts 70°
2026-05-06 15:35 52.13946 7.71069 529 ft 76 kts 66°
2026-05-06 15:35 52.14143 7.71906 641 ft 80 kts 65°
2026-05-06 15:35 52.14493 7.72529 805 ft 77 kts 24°
2026-05-06 15:35 52.15013 7.72592 985 ft 76 kts 356°
2026-05-06 15:36 52.15538 7.72446 1146 ft 74 kts 355°
2026-05-06 15:36 52.16059 7.72181 1100 ft 87 kts 332°
2026-05-06 15:36 52.16235 7.71118 954 ft 117 kts 257°
2026-05-06 15:36 52.15904 7.69984 1058 ft 100 kts 244°
2026-05-06 15:37 52.15558 7.68996 998 ft 105 kts 242°
2026-05-06 15:37 52.15134 7.67974 988 ft 107 kts 232°
2026-05-06 15:37 52.14682 7.67033 999 ft 104 kts 237°
2026-05-06 15:37 52.14294 7.66072 1003 ft 102 kts 243°
2026-05-06 15:38 52.13926 7.65023 951 ft 107 kts 245°
2026-05-06 15:38 52.13282 7.64503 838 ft 116 kts 167°
2026-05-06 15:38 52.12698 7.64900 983 ft 77 kts 139°
2026-05-06 15:38 52.12642 7.65571 700 ft 77 kts 45°
2026-05-06 15:39 52.12984 7.66212 452 ft 76 kts 61°
2026-05-06 15:39 52.13157 7.67060 216 ft 76 kts 64°
2026-05-06 15:39 52.13314 7.67786 159 ft 55 kts 65°
2026-05-06 15:39 52.13456 7.68393 161 ft 71 kts 73°
2026-05-06 15:40 52.13603 7.69250 266 ft 81 kts 65°
2026-05-06 15:40 52.13814 7.70111 390 ft 76 kts 64°
2026-05-06 15:40 52.13982 7.70908 483 ft 75 kts 64°
2026-05-06 15:40 52.14177 7.71704 560 ft 76 kts 62°
2026-05-06 15:41 52.14390 7.72450 680 ft 71 kts 56°
2026-05-06 15:41 52.14624 7.73108 776 ft 67 kts 26°
2026-05-06 15:41 52.15160 7.72926 745 ft 82 kts 344°
2026-05-06 15:41 52.15601 7.72449 880 ft 73 kts 333°
2026-05-06 15:42 52.15968 7.71769 810 ft 99 kts 285°
2026-05-06 15:42 52.15805 7.70609 822 ft 100 kts 250°
2026-05-06 15:42 52.15504 7.69608 884 ft 97 kts 247°
2026-05-06 15:42 52.15177 7.68625 928 ft 100 kts 240°
2026-05-06 15:43 52.14790 7.67623 944 ft 105 kts 241°
2026-05-06 15:43 52.14408 7.66589 960 ft 105 kts 252°
2026-05-06 15:43 52.14115 7.65547 1076 ft 99 kts 250°
2026-05-06 15:43 52.13811 7.64511 1111 ft 102 kts 247°
2026-05-06 15:44 52.13494 7.63491 1159 ft 104 kts 245°
2026-05-06 15:44 52.12975 7.62674 1111 ft 116 kts 183°
2026-05-06 15:44 52.12213 7.62727 1133 ft 102 kts 144°
2026-05-06 15:44 52.12278 7.63471 839 ft 90 kts 31°
2026-05-06 15:45 52.12512 7.64147 762 ft 71 kts 76°
2026-05-06 15:45 52.12648 7.64864 587 ft 63 kts 61°
2026-05-06 15:45 52.12817 7.65518 406 ft 62 kts 67°
2026-05-06 15:45 52.12967 7.66186 310 ft 62 kts 63°
2026-05-06 15:46 52.13119 7.66881 217 ft 66 kts 63°
2026-05-06 15:46 52.13267 7.67553 159 ft 52 kts 66°
2026-05-06 15:46 52.13307 7.67723 159 ft 0 kts 70°
2026-05-06 15:47 52.13315 7.67758 159 ft 9 kts 76°
2026-05-06 15:47 52.13345 7.67922 159 ft 20 kts 72°
2026-05-06 15:47 52.13389 7.68134 160 ft 16 kts 79°
2026-05-06 15:48 52.13338 7.68274 160 ft 14 kts 158°
2026-05-06 15:48 52.13312 7.68290 160 ft 0 kts 154°
2026-05-06 15:49 52.13273 7.68330 161 ft 10 kts 121°
2026-05-06 15:50 52.13285 7.68477 160 ft 16 kts 73°
2026-05-06 15:50 52.13328 7.68667 160 ft 18 kts 70°
2026-05-06 15:50 52.13330 7.68853 160 ft 14 kts 151°
2026-05-06 15:50 52.13279 7.68790 160 ft 12 kts 244°
2026-05-06 15:51 52.13240 7.68781 160 ft 4 kts 161°
2026-05-06 15:51 52.13210 7.68796 160 ft 0 kts 160°